This is the latest recevied weather packets stored in our database for station/object VE4GLS. If no packets are shown the sender has not sent any weather packets the latest 10 day(s).
| Time | Temp. | Humidity | Pressure | Rain* | Wind** | Luminosity | Snow |
|---|---|---|---|---|---|---|---|
| 1778098175 | 7.78° C | 46% | 1012.3 hPa | 0 mm | - | - | - |
| 1778097754 | 7.22° C | 47% | 1012.3 hPa | 0 mm | - | - | - |
| 1778097574 | 7.22° C | 47% | 1012.3 hPa | 0 mm | - | - | - |
| 1778096973 | 7.78° C | 44% | 1012.6 hPa | 0 mm | - | - | - |
| 1778096855 | 7.78° C | 47% | 1012.5 hPa | 0 mm | - | - | - |
| 1778096374 | 6.67° C | 48% | 1012.7 hPa | 0 mm | - | - | - |
| 1778095956 | 6.67° C | 48% | 1012.6 hPa | 0 mm | - | - | - |
| 1778095774 | 6.11° C | 46% | 1012.8 hPa | 0 mm | - | - | - |
| 1778095174 | 6.67° C | 47% | 1012.8 hPa | 0 mm | - | - | - |
| 1778095056 | 6.67° C | 48% | 1012.7 hPa | 0 mm | - | - | - |
| 1778094573 | 6.67° C | 49% | 1012.9 hPa | 0 mm | - | - | - |
| 1778094155 | 6.67° C | 46% | 1012.9 hPa | 0 mm | - | - | - |
| 1778093973 | 7.22° C | 48% | 1012.9 hPa | 0 mm | - | - | - |
| 1778093375 | 6.67° C | 50% | 1012.9 hPa | 0 mm | - | - | - |
| 1778093255 | 6.11° C | 50% | 1012.9 hPa | 0 mm | - | - | - |
| 1778092775 | 6.11° C | 50% | 1013 hPa | 0 mm | - | - | - |
| 1778092354 | 6.11° C | 51% | 1013.1 hPa | 0 mm | - | - | - |
| 1778092174 | 6.11° C | 51% | 1013.1 hPa | 0 mm | - | - | - |
| 1778091574 | 6.11° C | 55% | 1013.1 hPa | 0 mm | - | - | - |
| 1778091456 | 5.56° C | 56% | 1013.1 hPa | 0 mm | - | - | - |
| 1778090974 | 5° C | 54% | 1013.2 hPa | 0 mm | - | - | - |
| 1778090556 | 5° C | 55% | 1013.3 hPa | 0 mm | - | - | - |
| 1778090374 | 5° C | 56% | 1013.4 hPa | 0 mm | - | - | - |
| 1778089774 | 4.44° C | 59% | 1013.5 hPa | 0 mm | - | - | - |
| 1778089655 | 4.44° C | 58% | 1013.5 hPa | 0 mm | - | - | - |
* Rain latest hour (hover to see other rain measurements)
** Current wind speed in m/s (hover to see current wind gust speed)